Location: Colonia Mina de C?rbuni
(46.1667°N, 22.7167°E)
Time: 16:13:36
(UTC+00:00)

Courier 1B - Pass Details

Date: 23 April 2024
Orbit: 962 x 1208 km, 28.3° (Epoch: 23 May)

Event Time Altitude Azimuth Distance (km) Brightness Sun altitude
Rises 01:53:51 0° 243° (WSW) 3,977 - -15.2°
Reaches altitude 10° 01:57:47 10° 225° (SW) 2,968 - -14.6°
Exits shadow 02:00:11 15° 207° (SSW) 2,558 9.2 -14.3°
Maximum altitude 02:02:10 17° 188° (S) 2,422 9.2 -14.0°
Drops below altitude 10° 02:06:25 10° 150° (SSE) 2,852 9.9 -13.4°
Sets 02:10:05 0° 131° (SE) 3,757 10.8 -12.9°
